Погода в Мансурово

Россия / Курганская область     55°00′27″N   62°17′07″E
темп.,
°C
ветер,
м/с
пор.,
м/с
влажн.,
%
обл.,
%
осадки,
мм/ч
давл.,
гПа
погр.,
м
20 июня, вс
вс2023:00+13юз3992100 1.7 1014346
02:00+13юз41097100 1.6 1011237
05:00+16зсз6149357 2.1 1009494
08:00+19сз81386100 0.3 1008754
11:00+22ссз10165016 0.3 10091929
14:00+22ссз1015353 0.0 10102325
17:00+21ссз916390 0.0 10112512
20:00+17ссз916414 0.0 10131281
21 июня, пн
пн2123:00+13ссз6144472 0.0 1015648
02:00+12ссз81643100 0.0 1016925
05:00+10ссз816520 0.0 1018693
08:00+13ссз914565 0.0 1020923
11:00+16с912525 0.0 10211521
14:00+19с8104699 0.0 10212009
17:00+19с574547 0.0 10211952
20:00+17ссв116014 0.0 102011
22 июня, вт
вт2223:00+14ююз3363100 0.0 102144
02:00+14ююв3563100 0.0 1020137
05:00+14ююз476298 0.0 1019214
08:00+17з346032 0.0 1018322
11:00+21зсз456297 0.0 1018987
14:00+23зсз25638 0.1 1016783
17:00+23ссв45714 1.3 1016701
20:00+21всв347747 0.4 1016154
23 июня, ср
ср2323:00+18в238198 0.5 101648
02:00+17ююв348596 0.0 101669
05:00+15в349297 1.2 101679
08:00+14всв6991100 2.2 1018578
11:00+13вюв2390100 5.2 1019365
14:00+14в2383100 1.1 1020466
17:00+13юв2387100 2.1 1020314
20:00+14ююв008241 0.0 102032
24 июня, чт
чт2423:00+11в11852 0.0 102010
02:00+10ююв11873 0.0 102010
05:00+9ю228636 0.0 102015
08:00+14ююз237312 0.0 1019340
11:00+18юз445736 0.0 10181035
14:00+19юз445722 0.0 1017899
17:00+20зюз236393 0.0 10161231
20:00+19ю127493 0.0 101528